weather.gov     
National Weather Service

Terminal Aerodrome Forecast
NWS Homepage
This page is being discontinued on March 12, 2014.
The same data is available at this site. Please update your bookmarks.
Thank you, and we apologize for the inconvenience.
Please send an email to SR-SRH.Webmaster@noaa.gov with any concerns.


Current Version
Previous Version:    01  02  03  04  05  06  07  08  09  10  11  12  13  14  15  16  17  18  19  20  21  22  23  24  25  26  27  28  29  30  
   31  32  33  34  35  36  37  
[Printable]
775
FTUS43 KMKX 311224 AAA
TAFUES
TAF AMD
KUES 311224Z 3112/0112 32017G26KT P6SM BKN035
      TEMPO 3112/3114 6SM -SHSN
     FM311400 34019G30KT P6SM BKN035
     FM311700 35025G35KT P6SM SCT035
     FM312300 35018G25KT P6SM FEW035
     FM010500 35011KT P6SM SKC=




775
FTUS43 KMKX 311224 AAA
TAFUES
TAF AMD
KUES 311224Z 3112/0112 32017G26KT P6SM BKN035
      TEMPO 3112/3114 6SM -SHSN
     FM311400 34019G30KT P6SM BKN035
     FM311700 35025G35KT P6SM SCT035
     FM312300 35018G25KT P6SM FEW035
     FM010500 35011KT P6SM SKC=


U.S. Dept. of Commerce
NOAA National Weather Service
1325 East West Highway
Silver Spring, MD 20910
E-mail: w-nws.webmaster@noaa.gov
Page last modified: May 16, 2007
NATIONAL WEATHER SERVICE: for Safety, for Work, for Fun - FOR LIFE